{"data":{"norad_id":39460,"epoch":"2026-09-20T01:58:29.519040Z","epoch_age_seconds":50515,"freshness":"FRESH","line1":"1 39460U 13071A   26263.08228610 -.00000274  00000+0  00000+0 0  9992","line2":"2 39460   0.0298 260.9138 0002003 250.6539 332.0598  1.00274121 45385","mean_motion":1.00274121,"eccentricity":0.0002003,"inclination_deg":0.0298,"raan_deg":260.9138,"arg_perigee_deg":250.6539,"mean_anomaly_deg":332.0598,"bstar":0,"rev_number":4538,"period_min":1436.0634485143,"perigee_km":35777.49464366,"apogee_km":35794.385572949,"semimajor_km":42164.077108305,"source":"CELESTRAK","updated_at":"2026-09-20T09:00:35.682063Z"}}